Home > Weather > Burnaby > Past weeks

Flag for Canada Past Weather in Burnaby, British Columbia, Canada — Yesterday and Last 2 Weeks

Now
63 °F

Passing clouds.


Feels Like: 63 °F
Forecast: 52 / 71 °F
Wind: 10 mph from Northwest

Location: Vancouver International Airport

Current Time: Jul 30, 2016 at 10:36:15 PM

Latest Report: Jul 30, 2016 at 10:00 PM


Visibility: 30 mi

Pressure: 29.91 "Hg

Humidity: 77%

Dew Point: 55 °F

Location of BurnabyLocation

Past Weather in Burnaby — Graph

°F

Burnaby Temperature Yesterday

Maximum temperature yesterday: 73 °F (at 3:00 PM)
Minimum temperature yesterday: 64 °F (at 4:00 AM)
Average temperature yesterday: 68 °F

High & Low Weather Summary for the Past Weeks

 TemperatureHumidityPressure
High75 °F (Jul 18, 4:00 PM)100% (Jul 17, 6:00 AM)30.26 "Hg (Jul 17, 6:00 AM)
Low57 °F (Jul 17, 6:00 AM)47% (Jul 22, 3:00 PM)29.86 "Hg (Jul 29, 8:00 PM)
Average67 °F75%30.05 "Hg
* Reported Jul 15 9:00 PM — Jul 30 9:00 PM, Burnaby, Weather by CustomWeather, © 2016

Note: Actual official high and low records may vary slightly from our data, if they occured in-between our weather recording intervals... More about our weather records

Advertising

Burnaby Weather History for the Previous 24 Hours

Scroll right to see more
 ConditionsComfort  
Time TempWeatherWind HumidityBarometerVisibility
9:00 PM
Sat, Jul 30
63 °FPassing clouds.6 mph73%29.90 "Hg30 mi
8:00 PM66 °FPassing clouds.7 mph64%29.90 "Hg30 mi
7:00 PM68 °FPassing clouds.9 mph64%29.91 "Hg30 mi
6:00 PM68 °FSunny.9 mph60%29.91 "Hg30 mi
5:00 PM70 °FSunny.8 mph57%29.92 "Hg30 mi
4:00 PM70 °FSunny.14 mph53%29.93 "Hg30 mi
3:00 PM70 °FSunny.17 mph53%29.93 "Hg30 mi
2:00 PM70 °FSunny.22 mph50%29.93 "Hg30 mi
1:00 PM68 °FPassing clouds.16 mph60%29.95 "Hg30 mi
12:00 PM66 °FPassing clouds.18 mph64%29.94 "Hg30 mi
11:00 AM66 °FPassing clouds.20 mph64%29.93 "Hg30 mi
10:00 AM64 °FPassing clouds.24 mph68%29.92 "Hg30 mi
9:00 AM63 °FScattered clouds.21 mph73%29.90 "Hg20 mi
8:00 AM63 °FPassing clouds.15 mph73%29.90 "Hg20 mi
7:00 AM61 °FPassing clouds.16 mph77%29.90 "Hg20 mi
6:00 AM59 °FPassing clouds.20 mph82%29.88 "Hg20 mi
5:00 AM59 °FPassing clouds.17 mph82%29.87 "Hg20 mi
4:00 AM59 °FPassing clouds.17 mph82%29.87 "Hg20 mi
3:00 AM61 °FClear.23 mph83%29.86 "Hg15 mi
2:00 AM61 °FClear.25 mph83%29.87 "Hg15 mi
1:00 AM61 °FClear.20 mph83%29.88 "Hg15 mi
12:00 AM63 °FClear.23 mph77%29.86 "Hg20 mi
11:00 PM
Fri, Jul 29
64 °FClear.22 mph78%29.86 "Hg15 mi
10:00 PM64 °FClear.14 mph83%29.86 "Hg30 mi
Weather by CustomWeather, © 2016

See weather overviewHow to use our weather pages